Location: Blériot-Plage
(50.9575°N, 1.8224°E)
Time: 11:18:31
(UTC+00:00)

ACS3 Solar Sail - Pass Details

Date: 15 May 2026
Orbit: 883 x 949 km, 97.2° (Epoch: 5 June)

Event Time Altitude Azimuth Distance (km) Brightness Sun altitude
Rises 23:28:25 0° 22° (NNE) 3,504 5.8 -19.8°
Reaches altitude 10° 23:31:24 10° 37° (NE) 2,556 4.7 -19.9°
Maximum altitude 23:35:46 22° 87° (E) 1,827 3.2 -19.9°
Enters shadow 23:38:17 17° 122° (ESE) 2,100 3.2 -19.9°
